カタログに戻る

ATLAS 5 CENTAUR DEB

運用中HEO
NORAD 46660·DEBRIS·🇺🇸 United States

打ち上げ Oct 17, 2018 から Cape Canaveral Space Force Station

Loading…

次のパス (今後24時間)

TLE

最新Source: Space-Track

元期: Sep 13, 2026, 06:05 UTC

1 46660U 18079CN  26256.25406468 -.00000175  00000-0  00000-0 0  9997
2 46660  13.3689  33.6800 4594020 317.4241  14.8488  1.81071963 13564

AllMySatでATLAS 5 CENTAUR DEBをリアルタイム追跡

Download on the App Store